Appleton, WI

9:50 AM CDT on May 27, 2017 (GMT -0500)
Outagamie County Regional

Weather History for KATW - February, 2014

Change the Weather History Date:

Thursday, February 6, 2014

  Actual Average Record
Temperature  
Mean Temperature 8 °F -  
Max Temperature 23 °F 24 °F 42 °F (2013)
Min Temperature -7 °F 7 °F -15 °F (1982)
Degree Days  
Heating Degree Days 57    
Moisture  
Dew Point -7 °F    
Average Humidity 70    
Maximum Humidity 84    
Minimum Humidity 52    
Precipitation  
Precipitation 0.00 in - - ()
Sea Level Pressure  
Sea Level Pressure 30.28 in    
Wind  
Wind Speed 11 mph (West)    
Max Wind Speed 20 mph    
Max Gust Speed 25 mph    
Visibility 10 miles    
Events      
Averages and records for this station are not official NWS values.
T = Trace of Precipitation, MM = Missing Value Source: NWS Daily Summary

Daily Weather History Graph

Daily Weather History Graph

Search for Another Location

Airport or City:

Trip Planner

Search our weather history database for the weather conditions in past years. The results will help you decide how hot, cold, wet, or windy it might be!

Date:

Astronomy

Feb. 06, 2014 Rise Set
Actual Time 7:06 AM CST 5:10 PM CST
Civil Twilight 6:35 AM CST 5:41 PM CST
Nautical Twilight 6:01 AM CST 6:15 PM CST
Astronomical Twilight 5:27 AM CST 6:49 PM CST
Moon 10:42 AM CST (2/6) 12:21 AM CST (2/6)
Length of Visible Light 11h 05m
Length of Day
10h 04m
Waxing Crescent, 49% of the Moon is Illuminated
Feb 6
Waxing Crescent
Feb 6
First Quarter
Feb 14
Full
Feb 22
Last Quarter
Mar 1
New

Hourly Weather History & Observations

Time (CST) Temp. Windchill Dew Point Humidity Pressure Visibility Wind Dir Wind Speed Gust Speed Precip Events Conditions
12:15 AM 3.2 °F -11.3 °F -4.0 °F 72% 30.34 in 10.0 mi West 9.2 mph - N/A   Scattered Clouds
12:35 AM 1.4 °F -14.5 °F -4.0 °F 78% 30.34 in 10.0 mi West 10.4 mph - N/A   Clear
12:55 AM 1.4 °F -14.5 °F -4.0 °F 78% 30.33 in 10.0 mi West 10.4 mph - N/A   Clear
1:15 AM 1.4 °F -15.3 °F -4.0 °F 78% 30.33 in 10.0 mi West 11.5 mph - N/A   Scattered Clouds
1:35 AM 1.4 °F -15.3 °F -4.0 °F 78% 30.33 in 10.0 mi West 11.5 mph - N/A   Scattered Clouds
1:55 AM 1.4 °F -13.5 °F -5.8 °F 72% 30.33 in 10.0 mi West 9.2 mph - N/A   Mostly Cloudy
2:15 AM 1.4 °F -15.3 °F -5.8 °F 72% 30.32 in 10.0 mi West 11.5 mph - N/A   Scattered Clouds
2:35 AM -0.4 °F -17.6 °F -5.8 °F 78% 30.32 in 10.0 mi West 11.5 mph - N/A   Scattered Clouds
2:55 AM -0.4 °F -17.6 °F -5.8 °F 78% 30.32 in 10.0 mi West 11.5 mph - N/A   Mostly Cloudy
3:15 AM 1.4 °F -15.3 °F -5.8 °F 72% 30.32 in 10.0 mi West 11.5 mph - N/A   Overcast
3:35 AM -0.4 °F -15.7 °F -5.8 °F 78% 30.32 in 10.0 mi West 9.2 mph - N/A   Overcast
3:55 AM -0.4 °F -14.7 °F -5.8 °F 78% 30.32 in 10.0 mi West 8.1 mph - N/A   Overcast
4:15 AM -0.4 °F -15.7 °F -7.6 °F 72% 30.32 in 10.0 mi West 9.2 mph - N/A   Overcast
4:35 AM -2.2 °F -16.8 °F -7.6 °F 78% 30.32 in 10.0 mi West 8.1 mph - N/A   Scattered Clouds
4:55 AM -4.0 °F -19.0 °F -9.4 °F 78% 30.31 in 10.0 mi West 8.1 mph - N/A   Clear
5:15 AM -4.0 °F -20.2 °F -9.4 °F 78% 30.31 in 10.0 mi WSW 9.2 mph - N/A   Clear
5:20 AM 23.0 °F 13.1 °F 14.0 °F 68% 30.31 in 10.0 mi West 9.2 mph - N/A   Mostly Cloudy
5:45 AM -5.8 °F -22.4 °F -11.2 °F 77% 30.31 in 10.0 mi West 9.2 mph - N/A   Mostly Cloudy
6:45 AM -7.6 °F -25.7 °F -11.2 °F 84% 30.30 in 10.0 mi West 10.4 mph - N/A   Mostly Cloudy
7:45 AM -7.6 °F -25.7 °F - N/A% 30.29 in 10.0 mi West 10.4 mph - N/A   Scattered Clouds
8:45 AM -5.8 °F -26.0 °F -11.2 °F 77% 30.30 in 10.0 mi West 13.8 mph - N/A   Clear
9:45 AM -2.2 °F -22.2 °F -11.2 °F 66% 30.29 in 10.0 mi West 15.0 mph - N/A   Clear
10:45 AM -0.4 °F -19.9 °F -9.4 °F 66% 30.29 in 10.0 mi West 15.0 mph - N/A   Clear
11:45 AM 1.4 °F -18.2 °F -9.4 °F 61% 30.27 in 10.0 mi West 16.1 mph - N/A   Clear
12:45 PM 3.2 °F -16.5 °F -7.6 °F 61% 30.26 in 10.0 mi West 17.3 mph 24.2 mph N/A   Clear
1:45 PM 5.0 °F -15.2 °F -7.6 °F 56% 30.23 in 10.0 mi West 19.6 mph - N/A   Clear
2:45 PM 6.8 °F -12.4 °F -7.6 °F 52% 30.22 in 10.0 mi West 18.4 mph 24.2 mph N/A   Clear
3:45 PM 6.8 °F -12.9 °F -7.6 °F 52% 30.21 in 10.0 mi West 19.6 mph 25.3 mph N/A   Clear
4:45 PM 6.8 °F -11.3 °F -7.6 °F 52% 30.20 in 10.0 mi West 16.1 mph - N/A   Clear
5:45 PM 3.2 °F -14.6 °F -9.4 °F 56% 30.20 in 10.0 mi WSW 13.8 mph 20.7 mph N/A   Clear
6:45 PM 3.2 °F -15.9 °F -9.4 °F 56% 30.20 in 10.0 mi West 16.1 mph 21.9 mph N/A   Clear
7:45 PM -0.4 °F -19.2 °F -9.4 °F 66% 30.21 in 10.0 mi West 13.8 mph - N/A   Clear
8:45 PM -0.4 °F -18.4 °F -11.2 °F 60% 30.22 in 10.0 mi WSW 12.7 mph - N/A   Clear
9:45 PM -2.2 °F -19.9 °F -11.2 °F 66% 30.23 in 10.0 mi WSW 11.5 mph - N/A   Clear
10:45 PM -2.2 °F -20.7 °F -11.2 °F 66% 30.21 in 10.0 mi WSW 12.7 mph - N/A   Clear
11:15 PM -2.2 °F -18.9 °F -9.4 °F 71% 30.21 in 10.0 mi WSW 10.4 mph - N/A   Clear
11:35 PM -4.0 °F -20.2 °F -11.2 °F 71% 30.21 in 10.0 mi SW 9.2 mph - N/A   Clear
11:55 PM -4.0 °F -22.1 °F -11.2 °F 71% 30.20 in 10.0 mi SW 11.5 mph - N/A   Clear